Airfield :
LOGIN :

Register | Disclaimer

   EN    FR    IT 

 










Legend :    VFR   Marginal VFR   IFR   Intensive IFR   Very Intensive IFR
Visi :
Ceiling :
>= 8 km
>= 3000ft
5 to 8 km
1000 to 3000 ft
1500m to 5 km
500 to 1000 ft
800 to 1500m
200 to 500 ft
< 800m
< 200 ft
Symbols :   Thunderstorms  Fog  Heavy snow  Heavy precipitations  Wind > 20 kt
SIGMETs :     Misc.  Thunderstorms  Icing  Turbulence  Mountain Waves  Volcanic Ashes







- Airport Elevation : 433 ft
- Download approach charts


LFOC - Chateaudun

CURRENT METAR :
  • 222000Z AUTO 34006KT CAVOK 23/13 Q1017

EXPIRED METARs :
  • 221930Z AUTO 34005KT CAVOK 24/13 Q1017
  • 221900Z AUTO 34007KT 330V070 CAVOK 25/13 Q1016
  • 221830Z AUTO VRB07KT CAVOK 26/13 Q1016
  • 221800Z AUTO 35006KT 310V120 CAVOK 26/12 Q1016
  • 221730Z AUTO VRB08KT CAVOK 26/12 Q1016

Expired Forecast.
No reported NOTAMs for that airfield.



MET'MAP, your aeronautical weather chart ! - Copyright ORBIFLY December 2007 - Disclaimer

ORBIFLY MET'MAP TEAM :

Programming & Development : Alexandra Zaïnal
Concept & Development : Baudouin d'Aumeries
Co-Development & Prog : Marc-Olivier Méhu
Technical & hardware support : Manuel Goepfert

Contact : metmap@orbifly.com




SOURCES & CREDITS :

   NOAA